This demonstration page uses our WeatherBlox Daily Observations layout. Learn more.

Left ArrowRight Arrow

39.51506, -84.39828

Hourly Observations for December 18, 2015

Temp ( °F °C ) Dew Point ( °F °C ) Humidity (%) Winds ( mph kmh ) Pressure ( in mb ) Visibility ( mi km ) Precip ( " mm )
12:15 am 00:15 Cloudy 34 1.2 23 -4.8 65 65 WNW 8 13 30.03 1017 10 16 N/A
12:35 am 00:35 Cloudy 34 1.2 23 -5.1 63 63 WNW 7 11 30.03 1017 10 16 N/A
12:55 am 00:55 Cloudy 34 1.2 23 -5.1 63 63 NNW 8 13 30.03 1017 10 16 N/A
1:15 am 01:15 Cloudy 34 1.2 22 -5.3 62 62 NW 5 7 30.03 1017 10 16 N/A
1:35 am 01:35 Cloudy 34 1.2 22 -5.5 61 61 NW 7 11 30.03 1017 10 16 N/A
1:55 am 01:55 Cloudy 34 1.2 22 -5.3 62 62 WNW 9 15 30.03 1017 10 16 N/A
2:15 am 02:15 Cloudy 34 1.2 22 -5.3 62 62 NW 6 9 30.03 1017 10 16 N/A
2:35 am 02:35 Cloudy 34 1.2 22 -5.5 61 61 NNW 5 7 30.03 1017 10 16 N/A
2:55 am 02:55 Cloudy 34 1.2 22 -5.4 62 62 NNW 3 6 30.03 1017 10 16 N/A
3:15 am 03:15 Cloudy 34 1.2 22 -5.4 62 62 N N/A 30.03 1017 10 16 N/A
3:35 am 03:35 Cloudy 34 1.2 23 -5.1 63 63 W 7 11 30.03 1017 10 16 N/A
3:55 am 03:55 Cloudy 34 1.2 23 -5.2 63 63 W 6 9 30.03 1017 10 16 N/A
4:15 am 04:15 Cloudy 34 1.2 23 -5 64 64 W 8 13 30.03 1017 10 16 N/A
4:35 am 04:35 Cloudy 34 1.2 22 -5.4 62 62 WNW 7 11 30.03 1017 10 16 N/A
4:55 am 04:55 Cloudy 34 1.2 22 -5.4 62 62 NW 5 7 30.03 1017 10 16 N/A
5:15 am 05:15 Cloudy 34 1.2 22 -5.4 62 62 N N/A 30.03 1017 10 16 N/A
5:35 am 05:35 Cloudy 34 1.2 23 -5.2 63 63 W 5 7 30.03 1017 10 16 N/A
5:55 am 05:55 Cloudy 34 1.2 23 -5.1 63 63 W 7 11 30.03 1017 10 16 N/A
6:15 am 06:15 Cloudy 34 1.2 23 -5.2 63 63 W 6 9 30.03 1017 10 16 N/A
6:35 am 06:35 Cloudy 34 1.2 23 -5.2 63 63 WSW 6 9 30.03 1017 10 16 N/A
6:55 am 06:55 Cloudy 34 1.2 23 -5.2 63 63 W 5 7 30.06 1018 10 16 N/A
7:15 am 07:15 Cloudy 34 1.2 23 -5.2 63 63 W 5 7 30.06 1018 10 16 N/A
7:35 am 07:35 Cloudy 34 1.2 22 -5.4 62 62 WSW 6 9 30.06 1018 10 16 N/A
7:55 am 07:55 Cloudy 34 1.2 23 -5.2 63 63 WSW 5 7 30.06 1018 10 16 N/A
8:15 am 08:15 Cloudy 34 1.2 23 -5 64 64 WSW 5 7 30.06 1018 10 16 N/A
8:35 am 08:35 Cloudy 34 1.2 22 -5.5 61 61 WSW 6 9 30.06 1018 10 16 N/A
8:55 am 08:55 Cloudy 34 1.2 21 -6.3 58 58 W 6 9 30.06 1018 10 16 N/A
9:15 am 09:15 Cloudy 34 1.2 21 -6 59 59 W 8 13 30.06 1018 10 16 N/A
9:35 am 09:35 Cloudy 34 1.2 21 -6 59 59 W 7 11 30.09 1019 10 16 N/A
9:55 am 09:55 Cloudy 34 1.2 20 -6.9 55 55 WSW 8 13 30.09 1019 10 16 N/A
10:15 am 10:15 Mostly Cloudy 36 2 20 -6.7 53 53 SW 10 17 30.09 1019 10 16 N/A
10:35 am 10:35 Mostly Cloudy 37 2.6 20 -6.6 51 51 WSW 10 17 30.09 1019 10 16 N/A
10:55 am 10:55 Cloudy 37 2.6 21 -6 53 53 WSW 12 19 30.09 1019 10 16 N/A
11:15 am 11:15 Mostly Cloudy 37 2.6 21 -5.9 54 54 W 15 24 30.09 1019 10 16 N/A
11:35 am 11:35 Mostly Cloudy 37 2.6 20 -6.6 51 51 WSW 16 26 30.09 1019 10 16 N/A
11:55 am 11:55 Mostly Cloudy 37 2.6 20 -6.9 50 50 W 15 24 30.06 1018 10 16 N/A
12:15 pm 12:15 Mostly Cloudy 37 2.6 19 -7.5 48 48 W 12 19 30.06 1018 10 16 N/A
12:35 pm 12:35 Mostly Cloudy 37 2.6 20 -6.9 50 50 W 13 20 30.06 1018 10 16 N/A
12:55 pm 12:55 Cloudy 37 2.6 20 -6.9 50 50 W 10 17 30.06 1018 10 16 N/A
1:15 pm 13:15 Cloudy 37 2.6 20 -6.6 51 51 W 15 24 30.06 1018 10 16 N/A
1:35 pm 13:35 Cloudy 37 2.6 19 -7.2 49 49 W 13 20 30.06 1018 10 16 N/A
1:55 pm 13:55 Cloudy 37 2.6 19 -7.1 49 49 W 17 28 30.06 1018 10 16 N/A
2:15 pm 14:15 Cloudy with Light Snow 37 2.6 20 -6.4 52 52 W 16 26 30.06 1018 10 16 N/A
2:35 pm 14:35 Cloudy 37 2.6 21 -6.1 53 53 W 16 26 30.06 1018 10 16 N/A
2:55 pm 14:55 Cloudy 37 2.6 20 -6.7 51 51 W 17 28 30.06 1018 10 16 N/A
3:15 pm 15:15 Cloudy 37 2.6 18 -7.7 47 47 W 16 26 30.09 1019 10 16 N/A
3:35 pm 15:35 Mostly Cloudy 35 1.4 13 -10.6 41 41 W 21 33 30.09 1019 10 16 N/A
3:55 pm 15:55 Partly Cloudy 34 1.2 10 -12 37 37 W 20 31 30.12 1020 10 16 N/A
4:15 pm 16:15 Partly Cloudy 34 1.2 10 -12.3 36 36 W 18 30 30.12 1020 10 16 N/A
4:35 pm 16:35 Mostly Cloudy 34 1.2 10 -12 37 37 WNW 15 24 30.12 1020 10 16 N/A
4:55 pm 16:55 Partly Cloudy 34 1.2 13 -10.8 41 41 W 10 17 30.15 1021 10 16 N/A
5:15 pm 17:15 Partly Cloudy 34 1.2 13 -10.3 42 42 W 13 20 30.15 1021 10 16 N/A
5:35 pm 17:35 Partly Cloudy 34 1.2 15 -9.7 44 44 W 13 20 30.15 1021 10 16 N/A
5:55 pm 17:55 Clear 32 undefined 13 -10.5 45 45 W 7 11 30.15 1021 10 16 N/A
6:15 pm 18:15 Clear 31 -0.7 14 -10 50 50 WSW 8 13 30.18 1022 10 16 N/A
6:35 pm 18:35 Clear 30 -0.9 14 -9.8 51 51 WSW 7 11 30.18 1022 10 16 N/A
6:55 pm 18:55 Clear 30 -1.1 14 -9.9 52 52 WSW 7 11 30.18 1022 10 16 N/A
7:15 pm 19:15 Partly Cloudy 30 -1.2 15 -9.3 55 55 WSW 8 13 30.18 1022 10 16 N/A
7:35 pm 19:35 Cloudy 31 -0.6 16 -8.8 54 54 WSW 7 11 30.18 1022 10 16 N/A
7:55 pm 19:55 Cloudy 32 undefined 17 -8.4 54 54 WSW 7 11 30.18 1022 10 16 N/A
8:15 pm 20:15 Mostly Cloudy 30 -1 16 -9 55 55 WSW 6 9 30.21 1023 10 16 N/A
8:35 pm 20:35 Partly Cloudy 29 -1.5 16 -9 57 57 SW 7 11 30.21 1023 10 16 N/A
8:55 pm 20:55 Mostly Cloudy 31 -0.7 17 -8.1 58 58 SW 8 13 30.21 1023 10 16 N/A
9:15 pm 21:15 Cloudy 32 -0.1 18 -8 56 56 SW 9 15 30.21 1023 10 16 N/A
9:35 pm 21:35 Cloudy 32 0.2 16 -8.9 51 51 SW 10 17 30.21 1023 10 16 N/A
9:55 pm 21:55 Cloudy 34 1.2 17 -8.2 50 50 SW 10 17 30.21 1023 10 16 N/A
10:15 pm 22:15 Cloudy 34 1.2 17 -8.3 50 50 SW 10 17 30.21 1023 10 16 N/A
10:35 pm 22:35 Cloudy 34 1.2 17 -8.6 48 48 SW 14 22 30.21 1023 10 16 N/A
10:55 pm 22:55 Cloudy 34 1.2 16 -8.7 48 48 SW 12 19 30.21 1023 10 16 N/A
11:15 pm 23:15 Mostly Cloudy 34 1.2 17 -8.4 49 49 SW 12 19 30.21 1023 10 16 N/A
11:35 pm 23:35 Cloudy 34 1.2 17 -8.5 49 49 SW 10 17 30.21 1023 10 16 N/A
11:55 pm 23:55 Mostly Cloudy 34 1.2 17 -8.4 49 49 SW 12 19 30.21 1023 10 16 N/A

Powered by AerisWeather